Flag for USA

Past Weather in Ringgold, Georgia, USA — Yesterday and Last 2 Weeks

Now
90 °F

Scattered clouds.


Feels Like: 94 °F
Forecast: 89 / 68 °F
Wind: 9 mph from Northwest

Location: Lovell Field

Current Time: Jul 13, 2020 at 6:33:40 pm

Latest Report: Jul 13, 2020 at 5:53 pm


Visibility: 10 mi

Pressure: 29.88 "Hg

Humidity: 48%

Dew Point: 68 °F

Location of RinggoldLocation

Past Weather in Ringgold — Graph

°F

Ringgold Temperature Yesterday

Maximum temperature yesterday: 84 °F (at 5:53 pm)
Minimum temperature yesterday: 71 °F (at 5:53 am)
Average temperature yesterday: 76 °F

High & Low Weather Summary for the Past Weeks

 TemperatureHumidityPressure
High95 °F (Jul 3, 4:53 pm)100% (Jun 29, 5:34 am)30.06 "Hg (Jun 29, 5:34 am)
Low70 °F (Jun 29, 4:53 am)32% (Jul 11, 4:53 pm)29.78 "Hg (Jul 12, 4:53 pm)
Average80 °F74%29.93 "Hg
* Reported Jun 28 4:53 pm — Jul 13 4:53 pm, Ringgold. Weather by CustomWeather, © 2020

Note: Actual official high and low records may vary slightly from our data, if they occured in-between our weather recording intervals... More about our weather records

Ringgold Weather History for the Previous 24 Hours

Scroll right to see more
 ConditionsComfort  
Time TempWeatherWind HumidityBarometerVisibility
4:53 pm
Mon, Jul 13
93 °FScattered clouds.3 mph42%29.88 "Hg10 mi
3:53 pm92 °FScattered clouds.5 mph46%29.89 "Hg10 mi
2:53 pm91 °FBroken clouds.7 mph47%29.91 "Hg10 mi
1:53 pm88 °FBroken clouds.5 mph52%29.91 "Hg10 mi
12:53 pm86 °FBroken clouds.5 mph57%29.92 "Hg10 mi
11:53 am85 °FPartly sunny.6 mph59%29.92 "Hg10 mi
10:53 am83 °FScattered clouds.3 mph68%29.91 "Hg10 mi
9:53 am80 °FScattered clouds.No wind74%29.90 "Hg10 mi
8:53 am77 °FScattered clouds.7 mph79%29.90 "Hg10 mi
7:53 am73 °FScattered clouds.No wind90%29.89 "Hg10 mi
6:53 am70 °FPassing clouds.3 mph93%29.86 "Hg10 mi
6:39 am70 °FPassing clouds.3 mph90%29.89 "Hg10 mi
5:53 am70 °FPassing clouds.No wind93%29.85 "Hg10 mi
4:53 am70 °FClear.3 mph93%29.85 "Hg10 mi
3:53 am71 °FClear.No wind93%29.85 "Hg10 mi
2:53 am72 °FClear.5 mph91%29.85 "Hg10 mi
1:53 am73 °FClear.3 mph88%29.85 "Hg10 mi
12:53 am73 °FPassing clouds.No wind88%29.87 "Hg10 mi
11:53 pm
Sun, Jul 12
75 °FPassing clouds.No wind82%29.86 "Hg10 mi
10:53 pm76 °FPassing clouds.3 mph80%29.85 "Hg10 mi
9:53 pm76 °FPartly cloudy.No wind82%29.84 "Hg10 mi
8:53 pm80 °FBroken clouds.5 mph64%29.82 "Hg10 mi
7:53 pm84 °FScattered clouds.No wind55%29.81 "Hg10 mi
6:53 pm84 °FScattered clouds.No wind53%29.79 "Hg10 mi
Weather by CustomWeather, © 2020

See weather overview